60ISE43 HCMI-HKIS

Flight info

Callsign 60ISE43
Flight time N/A
Altitude 30000
Route HARGA UP312 ASKEN G657 MAV UP312 WAV UT932 AVESO
Aircraft F28/M-SDFIRWY/H

Departure

Time 2026-05-08 00:56
Airport Berbera Airport (HCMI)

Arrival

Time N/A
Airport Isiolo Airport (HKIS)
Time Latitude Longitude Altitude Speed Heading
2026-05-08 00:43 10.38883 44.94388 128 ft 0 kts 228°
2026-05-08 00:51 10.38884 44.94379 128 ft 3 kts 290°
2026-05-08 00:51 10.38887 44.94377 124 ft 0 kts 327°
2026-05-08 00:51 10.38902 44.94374 125 ft 2 kts 19°
2026-05-08 00:52 10.38917 44.94396 128 ft 0 kts 103°
2026-05-08 00:52 10.38883 44.94425 127 ft 10 kts 172°
2026-05-08 00:52 10.38855 44.94390 126 ft 11 kts 258°
2026-05-08 00:52 10.38858 44.94313 126 ft 11 kts 290°
2026-05-08 00:53 10.38912 44.94242 126 ft 13 kts 317°
2026-05-08 00:53 10.38975 44.94211 128 ft 8 kts 25°
2026-05-08 00:53 10.39037 44.94271 126 ft 18 kts 52°
2026-05-08 00:53 10.39122 44.94348 124 ft 22 kts 38°
2026-05-08 00:54 10.39225 44.94453 130 ft 20 kts 46°
2026-05-08 00:54 10.39313 44.94551 129 ft 18 kts 44°
2026-05-08 00:54 10.39397 44.94637 129 ft 19 kts 47°
2026-05-08 00:54 10.39504 44.94700 131 ft 17 kts 24°
2026-05-08 00:55 10.39554 44.94768 128 ft 2 kts 102°
2026-05-08 00:55 10.39534 44.94783 128 ft 1 kts 195°
2026-05-08 00:55 10.39485 44.94733 131 ft 35 kts 226°
2026-05-08 00:55 10.39074 44.94290 128 ft 134 kts 224°
2026-05-08 00:56 10.38294 44.93459 685 ft 167 kts 224°
2026-05-08 00:56 10.37467 44.92618 1915 ft 189 kts 224°
2026-05-08 00:56 10.36388 44.91551 2385 ft 231 kts 224°
2026-05-08 00:56 10.35289 44.90325 2716 ft 245 kts 226°
2026-05-08 00:57 10.34103 44.89001 2690 ft 259 kts 226°
2026-05-08 00:57 10.32919 44.87699 3244 ft 250 kts 226°
2026-05-08 00:57 10.31706 44.86367 3026 ft 270 kts 226°
2026-05-08 00:57 10.30408 44.84940 2746 ft 283 kts 226°
2026-05-08 00:58 10.29065 44.83461 2592 ft 287 kts 226°
2026-05-08 00:58 10.27736 44.81997 2919 ft 280 kts 226°
2026-05-08 00:58 10.26394 44.80511 3736 ft 286 kts 226°
2026-05-08 00:58 10.25054 44.79036 4852 ft 282 kts 226°
2026-05-08 00:59 10.23737 44.77596 5963 ft 271 kts 226°
2026-05-08 00:59 10.22505 44.76240 7215 ft 253 kts 226°
2026-05-08 00:59 10.21327 44.74937 8370 ft 249 kts 226°
2026-05-08 00:59 10.20157 44.73642 9458 ft 254 kts 226°
2026-05-08 01:00 10.18938 44.72346 10366 ft 250 kts 226°
2026-05-08 01:00 10.17717 44.71064 11151 ft 255 kts 226°
2026-05-08 01:00 10.16475 44.69749 11787 ft 261 kts 226°
2026-05-08 01:00 10.15231 44.68419 12349 ft 265 kts 226°
2026-05-08 01:01 10.13931 44.67090 12866 ft 267 kts 220°
2026-05-08 01:01 10.12519 44.65853 13405 ft 270 kts 220°
2026-05-08 01:01 10.11119 44.64563 13924 ft 272 kts 221°
2026-05-08 01:01 10.09730 44.63252 14495 ft 272 kts 221°
2026-05-08 01:02 10.08345 44.61946 15048 ft 272 kts 221°
2026-05-08 01:02 10.06962 44.60641 15508 ft 276 kts 221°
2026-05-08 01:02 10.05550 44.59308 16045 ft 278 kts 221°
2026-05-08 01:02 10.04129 44.57967 16604 ft 279 kts 221°
2026-05-08 01:03 10.02704 44.56623 17164 ft 280 kts 221°
2026-05-08 01:03 10.01269 44.55270 17750 ft 282 kts 221°
2026-05-08 01:03 9.99828 44.53912 18296 ft 283 kts 221°
2026-05-08 01:03 9.98383 44.52550 18790 ft 284 kts 221°
2026-05-08 01:04 9.96932 44.51185 19324 ft 284 kts 222°
2026-05-08 01:04 9.95968 44.50277 19666 ft 284 kts 222°
2026-05-08 01:04 9.94515 44.48904 20172 ft 286 kts 222°
2026-05-08 01:04 9.93055 44.47529 20678 ft 287 kts 221°
2026-05-08 01:05 9.91586 44.46148 21202 ft 289 kts 221°
2026-05-08 01:05 9.90108 44.44757 21695 ft 290 kts 221°
2026-05-08 01:05 9.88609 44.43346 22001 ft 300 kts 222°
2026-05-08 01:05 9.87040 44.41868 22093 ft 316 kts 222°
2026-05-08 01:06 9.85383 44.40310 22150 ft 333 kts 222°
2026-05-08 01:06 9.83648 44.38676 22272 ft 348 kts 222°
2026-05-08 01:06 9.81840 44.36974 22409 ft 360 kts 222°
2026-05-08 01:06 9.79972 44.35216 22569 ft 372 kts 222°
2026-05-08 01:07 9.78053 44.33410 22760 ft 382 kts 222°
2026-05-08 01:07 9.76084 44.31558 22959 ft 390 kts 222°
2026-05-08 01:07 9.74076 44.29671 23296 ft 394 kts 222°
2026-05-08 01:07 9.72058 44.27773 23640 ft 397 kts 222°
2026-05-08 01:08 9.70029 44.25865 23959 ft 399 kts 222°
2026-05-08 01:08 9.67989 44.23948 24272 ft 401 kts 222°
2026-05-08 01:08 9.65966 44.22048 24579 ft 402 kts 222°
2026-05-08 01:08 9.63908 44.20114 24886 ft 404 kts 222°
2026-05-08 01:09 9.61839 44.18170 25176 ft 406 kts 222°
2026-05-08 01:09 9.59763 44.16221 25465 ft 408 kts 222°
2026-05-08 01:09 9.57679 44.14263 25743 ft 409 kts 222°
2026-05-08 01:09 9.55589 44.12301 26021 ft 411 kts 222°
2026-05-08 01:10 9.53484 44.10325 26292 ft 412 kts 222°
2026-05-08 01:10 9.51391 44.08343 26533 ft 413 kts 217°
2026-05-08 01:10 9.48871 44.06948 26775 ft 413 kts 199°
2026-05-08 01:10 9.46129 44.06059 27017 ft 414 kts 195°
2026-05-08 01:11 9.43350 44.05266 27251 ft 416 kts 195°
2026-05-08 01:11 9.40548 44.04496 27482 ft 417 kts 194°
2026-05-08 01:11 9.37774 44.03610 27700 ft 419 kts 200°
2026-05-08 01:11 9.35066 44.02611 27899 ft 421 kts 199°
2026-05-08 01:12 9.32312 44.01567 28099 ft 422 kts 200°
2026-05-08 01:12 9.29560 44.00518 28308 ft 424 kts 200°
2026-05-08 01:12 9.26800 43.99464 28514 ft 425 kts 200°
2026-05-08 01:12 9.24029 43.98405 28769 ft 425 kts 200°
2026-05-08 01:13 9.21261 43.97350 28961 ft 426 kts 200°
2026-05-08 01:13 9.18480 43.96290 29133 ft 427 kts 200°
2026-05-08 01:13 9.15699 43.95229 29338 ft 428 kts 200°
2026-05-08 01:13 9.12907 43.94166 29490 ft 429 kts 200°
2026-05-08 01:14 9.10103 43.93098 29636 ft 431 kts 200°
2026-05-08 01:14 9.07310 43.91986 29826 ft 432 kts 202°
2026-05-08 01:14 9.04526 43.90836 29966 ft 433 kts 201°
2026-05-08 01:14 9.01726 43.89695 30089 ft 435 kts 201°
2026-05-08 01:15 8.98914 43.88548 30141 ft 438 kts 201°
2026-05-08 01:15 8.93246 43.86241 30142 ft 445 kts 201°
2026-05-08 01:16 8.87453 43.83883 30141 ft 452 kts 201°
2026-05-08 01:16 8.81589 43.81496 30145 ft 457 kts 201°
2026-05-08 01:17 8.75665 43.79085 30145 ft 460 kts 201°
2026-05-08 01:17 8.69705 43.76660 30141 ft 463 kts 201°
2026-05-08 01:18 8.63713 43.74223 30143 ft 465 kts 201°
2026-05-08 01:18 8.57702 43.71779 30139 ft 466 kts 201°
2026-05-08 01:19 8.51671 43.69328 30133 ft 467 kts 201°
2026-05-08 01:19 8.45635 43.66876 30136 ft 468 kts 201°
2026-05-08 01:20 8.39634 43.64442 30134 ft 465 kts 201°
2026-05-08 01:20 8.33675 43.62018 30124 ft 457 kts 201°
2026-05-08 01:21 8.27819 43.59640 30117 ft 451 kts 201°
2026-05-08 01:21 8.22031 43.57289 30119 ft 446 kts 201°
2026-05-08 01:22 8.16289 43.54964 30126 ft 442 kts 201°
2026-05-08 01:22 8.10596 43.52657 30122 ft 440 kts 201°
2026-05-08 01:23 8.04929 43.50360 30120 ft 438 kts 201°
2026-05-08 01:23 7.99285 43.48081 30105 ft 436 kts 201°
2026-05-08 01:24 7.93646 43.45830 30113 ft 435 kts 200°
2026-05-08 01:24 7.88028 43.43591 30114 ft 433 kts 200°
2026-05-08 01:25 7.82458 43.41375 30120 ft 432 kts 201°
2026-05-08 01:25 7.76872 43.39155 30119 ft 431 kts 200°
2026-05-08 01:26 7.71288 43.36937 30125 ft 431 kts 200°
2026-05-08 01:26 7.65713 43.34726 30120 ft 431 kts 200°
2026-05-08 01:27 7.60137 43.32516 30118 ft 430 kts 200°
2026-05-08 01:27 7.54573 43.30314 30124 ft 430 kts 200°
2026-05-08 01:28 7.49001 43.28112 30119 ft 430 kts 200°
2026-05-08 01:28 7.43431 43.25911 30124 ft 429 kts 200°
2026-05-08 01:29 7.37865 43.23716 30125 ft 430 kts 200°
2026-05-08 01:29 7.32297 43.21522 30120 ft 430 kts 200°
2026-05-08 01:30 7.26726 43.19334 30118 ft 429 kts 200°
2026-05-08 01:30 7.21157 43.17152 30114 ft 429 kts 200°
2026-05-08 01:31 7.15628 43.14986 30105 ft 429 kts 200°
2026-05-08 01:31 7.10055 43.12804 30103 ft 429 kts 200°
2026-05-08 01:32 7.04486 43.10626 30104 ft 429 kts 200°
2026-05-08 01:32 6.98922 43.08453 30092 ft 429 kts 200°
2026-05-08 01:33 6.93355 43.06280 30090 ft 429 kts 200°
2026-05-08 01:33 6.87792 43.04112 30085 ft 429 kts 200°
2026-05-08 01:34 6.82228 43.01945 30086 ft 428 kts 200°
2026-05-08 01:34 6.76671 42.99783 30079 ft 428 kts 200°
2026-05-08 01:35 6.71107 42.97621 30083 ft 429 kts 200°
2026-05-08 01:35 6.65542 42.95460 30077 ft 429 kts 200°
2026-05-08 01:36 6.59977 42.93302 30076 ft 429 kts 200°
2026-05-08 01:36 6.54454 42.91153 30071 ft 429 kts 201°
2026-05-08 01:36 6.51735 42.89909 29937 ft 432 kts 205°
2026-05-08 01:37 6.49064 42.88586 29880 ft 434 kts 205°
2026-05-08 01:37 6.43670 42.85868 29873 ft 433 kts 206°
2026-05-08 01:38 6.38149 42.83488 29877 ft 431 kts 201°
2026-05-08 01:38 6.32578 42.81260 29873 ft 430 kts 200°
2026-05-08 01:39 6.27018 42.79043 29871 ft 430 kts 200°
2026-05-08 01:39 6.21556 42.76868 29859 ft 411 kts 201°
2026-05-08 01:40 6.16411 42.74806 29851 ft 382 kts 200°
2026-05-08 01:40 6.13943 42.73991 29636 ft 367 kts 192°
2026-05-08 01:40 6.11697 42.73373 30619 ft 310 kts 195°
2026-05-08 01:40 6.10862 42.73129 30897 ft 295 kts 195°